GAOFEN-9 01

Last updated on Mon Sep 21 2026 00:02:46 GMT+0000 (Coordinated Universal Time)

1 40894U 15047A 26263.60584080 .00000493 00000+0 66563-4 0 9997 2 40894 97.6216 294.9417 0027126 183.7081 176.3936 14.83026112594337
UTC large
Height (km)
Speed (km/s)
/
Latitude / Longitude
Inclination (degrees)
Orbital Period (minutes)
Azimuth
Elevation
Range (km)
Doppler Factor

Next 0 passes for location: London (51.5072 / 0.1276)

No passes found over London.
GAOFEN-9 01